Content
SEND FEEDBACK

Daily
Averages
Monthly
Summary
United States of America

ALPINE MEADOWS, CALIFORNIA


Home > North America > United States > California
Elevation: 1900 meters     Latitude: 39 12N     Longitude: 120 14W

WEATHER
 
SELECT A DAY
Number of Records: 289,208;   Date Range: 1/1/95 - 11/25/14
 
SHARE

PRINT THIS DATA

[ ← Previous Day ]
WEATHER ALMANAC - 29 OCTOBER, 2013
[ Next Day → ]
[ °F ]   °C
Weather ElementAverageHighLow
Temperature0.2 °C2 °C (10:50 am)-2 °C (11:15 pm)
Dewpoint-1.3 °C0 °C (5:45 pm)-2 °C (12:35 am)
Humidity90.4 %100 % (6:55 pm)75 % (10:50 am)
Barometer1014.6 hPa1018.6 hPa (10:35 pm)1009.8 hPa (12:35 am)
Wind Speed3.5 km/h11.1 km/h (10:50 am)
Weather ElementAverage
Visibility13.2 km
Wind DirectionESE (97.9 °)

Weather ElementTotal
Precipitation---
Heating Degree Days18.3 (Base 18.3)
Averaged from 43 records on 29 October, 2013
WEATHER CONDITIONS BREAKOUT
WIND DIRECTION BREAKOUT
WEATHER BY HOUR - 29 OCTOBER, 2013
[ °F ]   °C
Local TimeTemperatureDewpointHumidityBarometerVisibilityWind DirectionWind SpeedGust SpeedPrecipitationEventsConditions
12:35 AM0 °C-2 °C87 %1009.8 hPa16.1 kmCalmOvercast
12:55 AM0 °C-2 °C87 %1009.8 hPa16.1 kmEast (90°)5.6 km/hOvercast
1:15 AM0 °C-2 °C87 %1010.2 hPa16.1 kmEast (100°)7.4 km/hOvercast
1:35 AM0 °C-2 °C87 %1010.5 hPa16.1 kmCalmOvercast
1:55 AM0 °C-1 °C93 %1010.5 hPa16.1 kmCalmOvercast
2:15 AM0 °C-1 °C93 %1010.5 hPa16.1 kmWNW (290°)7.4 km/hOvercast
2:55 AM1 °C-2 °C81 %1010.5 hPa16.1 kmWNW (300°)9.3 km/hOvercast
3:55 AM0 °C-2 °C87 %1010.8 hPa16.1 kmENE (70°)7.4 km/hOvercast
4:55 AM0 °C-2 °C87 %1011.2 hPa16.1 kmENE (70°)7.4 km/hOvercast
5:35 AM0 °C-2 °C87 %1011.2 hPa16.1 kmNNE (30°)5.6 km/hOvercast
5:55 AM0 °C-2 °C87 %1011.5 hPa16.1 kmCalmOvercast
6:35 AM0 °C-2 °C87 %1011.5 hPa16.1 kmNE (40°)7.4 km/hOvercast
6:50 AM0 °C-1 °C93 %1011.5 hPa16.1 kmCalmOvercast
7:55 AM0 °C-1 °C93 %1012.9 hPa14.5 kmCalmOvercast
8:45 AM0 °C-1 °C93 %1012.9 hPa9.7 kmSSE (160°)7.4 km/hSnowLight Snow
9:50 AM1 °C-2 °C81 %1013.9 hPa12.9 kmWNW (290°)5.6 km/hOvercast
10:50 AM2 °C-2 °C75 %1014.2 hPa9.7 kmWest (280°)11.1 km/hSnowLight Snow
11:50 AM2 °C-1 °C81 %1014.6 hPa16.1 kmWest (260°)5.6 km/hOvercast
12:45 PM2 °C-2 °C75 %1014.6 hPa16.1 kmWest (270°)9.3 km/hOvercast
1:45 PM2 °C-1 °C81 %1014.6 hPa16.1 kmWest (280°)9.3 km/hOvercast
2:45 PM2 °C-1 °C81 %1014.6 hPa16.1 kmWNW (290°)11.1 km/hOvercast
3:55 PM2 °C-1 °C81 %1015.2 hPa14.5 kmWest (280°)5.6 km/hOvercast
4:45 PM2 °C-1 °C81 %1015.6 hPa14.5 kmWest (260°)7.4 km/hOvercast
5:45 PM1 °C0 °C93 %1015.9 hPa14.5 kmCalmOvercast
5:55 PM1 °C0 °C93 %1015.9 hPa16.1 kmCalmOvercast
6:15 PM1 °C0 °C93 %1016.3 hPa16.1 kmENE (60°)5.6 km/hOvercast
6:35 PM1 °C0 °C93 %1016.3 hPa11.3 kmNNW (330°)5.6 km/hOvercast
6:55 PM0 °C0 °C100 %1016.6 hPa16.1 kmCalmMostly Cloudy
7:15 PM0 °C0 °C100 %1016.6 hPa16.1 kmCalmMostly Cloudy
7:35 PM0 °C0 °C100 %1016.9 hPa16.1 kmCalmOvercast
7:55 PM0 °C0 °C100 %1017.3 hPa16.1 kmCalmOvercast
8:15 PM0 °C-1 °C93 %1016.9 hPa11.3 kmCalmOvercast
8:35 PM-1 °C-2 °C93 %1016.9 hPa0.8 kmCalmFogLight Freezing Fog
8:55 PM-1 °C-2 °C93 %1017.3 hPa0.8 kmNNW (340°)5.6 km/hFogLight Freezing Fog
9:15 PM-1 °C-1 °C100 %1017.9 hPa0.3 kmCalmFogLight Freezing Fog
9:35 PM-1 °C-1 °C100 %1017.9 hPa0.3 kmESE (120°)5.6 km/hFogLight Freezing Fog
9:55 PM-1 °C-1 °C100 %1018.3 hPa8 kmCalmOvercast
10:15 PM-1 °C-2 °C93 %1018.3 hPa16.1 kmCalmOvercast
10:35 PM-1 °C-2 °C93 %1018.6 hPa16.1 kmCalmOvercast
10:55 PM-1 °C-2 °C93 %1018.6 hPa16.1 kmCalmOvercast
11:15 PM-2 °C-2 °C100 %1018.3 hPa1.6 kmCalmOvercast
11:35 PM-2 °C-2 °C100 %1018.3 hPa11.3 kmCalmOvercast
11:55 PM-1 °C-2 °C93 %1018.3 hPa16.1 kmCalmOvercast
Hourly data recorded from KTRK, located 0 kilometers away from Alpine Meadows, California







STORIES FROM OUR PARTNERS